Oelwein, IA

1:51 PM CST on December 05, 2019 (GMT -0600)
Oelwein Municipal

Weather History for KOLZ - October, 2019

Change the Weather History Date:

Saturday, October 5, 2019

  Actual Average Record
Temperature  
Mean Temperature 52 °F -  
Max Temperature 57 °F 65 °F 86 °F (1990)
Min Temperature 46 °F 43 °F 18 °F (1952)
Degree Days  
Heating Degree Days 12    
Growing Degree Days 2 (Base 50)    
Moisture  
Dew Point 51 °F    
Average Humidity 99    
Maximum Humidity 100    
Minimum Humidity 88    
Precipitation  
Precipitation 0.96 in - - ()
Sea Level Pressure  
Sea Level Pressure 29.97 in    
Wind  
Wind Speed 14 mph (South)    
Max Wind Speed 23 mph    
Max Gust Speed 30 mph    
Visibility 8 miles    
Events      
Averages and records for this station are not official NWS values.
T = Trace of Precipitation, MM = Missing Value Source: NWS Daily Summary

Daily Weather History Graph

Daily Weather History Graph

Search for Another Location

Airport or City:

Astronomy

Oct. 05, 2019 Rise Set
Actual Time 7:09 AM CDT 6:42 PM CDT
Civil Twilight 6:41 AM CDT 7:10 PM CDT
Nautical Twilight 6:08 AM CDT 7:43 PM CDT
Astronomical Twilight 5:35 AM CDT 8:16 PM CDT
Moon 2:42 PM CDT 11:58 PM CDT
Length of Visible Light 12h 29m
Length of Day
11h 33m
Waxing Crescent, 50% of the Moon is Illuminated
Oct 5
Waxing Crescent
Oct 13
Full
Oct 21
Last Quarter
Oct 27
New
Nov 4
First Quarter

Hourly Weather History & Observations

Time (CDT) Temp. Windchill Dew Point Humidity Pressure Visibility Wind Dir Wind Speed Gust Speed Precip Events Conditions
12:15 AM 50.0 °F - 50.0 °F 100% 30.21 in 10.0 mi SE 9.2 mph 17.3 mph N/A   Mostly Cloudy
12:35 AM 50.0 °F - 50.0 °F 100% 30.21 in 10.0 mi SE 12.7 mph 18.4 mph N/A   Overcast
12:55 AM 51.8 °F - 50.0 °F 94% 30.21 in 10.0 mi SE 10.4 mph 17.3 mph N/A   Overcast
1:15 AM 50.0 °F - 50.0 °F 100% 30.21 in 10.0 mi SE 12.7 mph 20.7 mph N/A   Overcast
1:35 AM 50.0 °F - 50.0 °F 100% 30.19 in 10.0 mi SE 16.1 mph 23.0 mph N/A   Overcast
1:55 AM 50.0 °F - 50.0 °F 100% 30.18 in 10.0 mi SE 18.4 mph 25.3 mph N/A   Overcast
2:15 AM 50.0 °F - 50.0 °F 100% 30.17 in 10.0 mi SE 19.6 mph 27.6 mph N/A   Overcast
2:35 AM 50.0 °F - 50.0 °F 100% 30.15 in 10.0 mi SE 19.6 mph 25.3 mph N/A   Overcast
2:55 AM 50.0 °F - 50.0 °F 100% 30.15 in 10.0 mi SE 15.0 mph 25.3 mph N/A   Overcast
3:15 AM 50.0 °F - 50.0 °F 100% 30.18 in 10.0 mi SSE 11.5 mph 23.0 mph N/A   Overcast
3:35 AM 50.0 °F - 50.0 °F 100% 30.16 in 10.0 mi SE 15.0 mph 21.9 mph N/A   Overcast
3:55 AM 50.0 °F - 50.0 °F 100% 30.14 in 10.0 mi SE 16.1 mph 21.9 mph N/A   Overcast
4:15 AM 50.0 °F - 50.0 °F 100% 30.14 in 9.0 mi SSE 16.1 mph - N/A   Overcast
4:35 AM 48.2 °F - 48.2 °F 100% 30.12 in 2.5 mi SE 15.0 mph 21.9 mph N/A   Overcast
4:55 AM 48.2 °F - 48.2 °F 100% 30.10 in 5.0 mi SE 16.1 mph 24.2 mph 0.07 in   Overcast
5:15 AM 48.2 °F - 48.2 °F 100% 30.08 in 9.0 mi SE 18.4 mph - N/A   Mostly Cloudy
5:35 AM 48.2 °F - 48.2 °F 100% 30.08 in 10.0 mi SE 16.1 mph 23.0 mph N/A   Mostly Cloudy
5:55 AM 48.2 °F - 48.2 °F 100% 30.07 in 7.0 mi SE 17.3 mph 25.3 mph 0.03 in   Overcast
6:15 AM 48.2 °F - 48.2 °F 100% 30.10 in 10.0 mi SSE 11.5 mph - N/A   Overcast
6:35 AM 48.2 °F - 48.2 °F 100% 30.04 in 10.0 mi SE 17.3 mph 24.2 mph N/A   Overcast
6:55 AM 48.2 °F - 48.2 °F 100% 30.04 in 10.0 mi SE 13.8 mph 20.7 mph N/A   Overcast
7:15 AM 48.2 °F - 48.2 °F 100% 30.03 in 10.0 mi SE 13.8 mph 20.7 mph N/A   Overcast
7:35 AM 48.2 °F - 48.2 °F 100% 30.00 in 10.0 mi SE 18.4 mph 25.3 mph N/A   Overcast
7:55 AM 50.0 °F - 50.0 °F 100% 29.99 in 10.0 mi SE 17.3 mph 26.5 mph N/A   Overcast
8:15 AM 50.0 °F - 50.0 °F 100% 29.99 in 10.0 mi SE 18.4 mph 25.3 mph N/A   Overcast
8:35 AM 50.0 °F - 50.0 °F 100% 29.97 in 10.0 mi SE 19.6 mph 28.8 mph N/A   Mostly Cloudy
8:55 AM 50.0 °F - 50.0 °F 100% 29.97 in 9.0 mi SSE 17.3 mph 25.3 mph 0.01 in   Mostly Cloudy
9:15 AM 50.0 °F - 50.0 °F 100% 29.96 in 8.0 mi SSE 18.4 mph 25.3 mph N/A   Mostly Cloudy
9:35 AM 50.0 °F - 50.0 °F 100% 29.97 in 5.0 mi SSE 17.3 mph 26.5 mph N/A   Overcast
9:55 AM 50.0 °F - 50.0 °F 100% 29.94 in 2.5 mi SSE 23.0 mph 29.9 mph 0.07 in   Overcast
10:15 AM 50.0 °F - 50.0 °F 100% 29.99 in 4.0 mi South 15.0 mph 21.9 mph N/A   Overcast
10:35 AM 50.0 °F - 50.0 °F 100% 29.97 in 1.5 mi SSE 17.3 mph 24.2 mph N/A   Overcast
10:55 AM 50.0 °F - 50.0 °F 100% 29.95 in 1.5 mi SSE 16.1 mph 23.0 mph 0.43 in   Overcast
11:15 AM 50.0 °F - 50.0 °F 100% 29.96 in 1.0 mi SSE 12.7 mph 23.0 mph N/A   Overcast
11:35 AM 50.0 °F - 50.0 °F 100% 29.95 in 3.0 mi SE 15.0 mph - N/A   Overcast
11:55 AM 50.0 °F - 50.0 °F 100% 29.89 in 5.0 mi SE 20.7 mph 29.9 mph 0.29 in   Mostly Cloudy
12:15 PM 50.0 °F - 50.0 °F 100% 29.90 in 5.0 mi SE 20.7 mph 27.6 mph N/A   Mostly Cloudy
12:35 PM 50.0 °F - 50.0 °F 100% 29.88 in 10.0 mi SSE 20.7 mph 27.6 mph N/A   Overcast
12:55 PM 50.0 °F - 50.0 °F 100% 29.87 in 10.0 mi SSE 16.1 mph 29.9 mph 0.05 in   Overcast
1:15 PM 51.8 °F - 51.8 °F 100% 29.86 in 10.0 mi SSE 18.4 mph 27.6 mph N/A   Overcast
1:35 PM 51.8 °F - 51.8 °F 100% 29.86 in 10.0 mi SSE 18.4 mph 25.3 mph N/A   Overcast
1:55 PM 51.8 °F - 51.8 °F 100% 29.85 in 5.0 mi SSE 18.4 mph 25.3 mph N/A   Overcast
2:15 PM 51.8 °F - 51.8 °F 100% 29.84 in 1.5 mi SSE 17.3 mph 23.0 mph N/A   Overcast
2:35 PM 51.8 °F - 51.8 °F 100% 29.84 in 6.0 mi South 12.7 mph 21.9 mph N/A   Overcast
2:55 PM 51.8 °F - 51.8 °F 100% 29.83 in 8.0 mi SSE 11.5 mph - N/A   Overcast
3:15 PM 53.6 °F - 53.6 °F 100% 29.84 in 1.2 mi South 15.0 mph - N/A   Overcast
3:35 PM 53.6 °F - 53.6 °F 100% 29.83 in 0.8 mi South 12.7 mph - N/A   Overcast
3:55 PM 53.6 °F - 53.6 °F 100% 29.83 in 1.2 mi SSW 11.5 mph 18.4 mph N/A   Overcast
4:15 PM 53.6 °F - 53.6 °F 100% 29.83 in 1.2 mi South 15.0 mph - N/A   Overcast
4:35 PM 53.6 °F - 53.6 °F 100% 29.84 in 1.2 mi South 12.7 mph 21.9 mph N/A   Overcast
4:55 PM 53.6 °F - 53.6 °F 100% 29.83 in 7.0 mi South 13.8 mph - 0.01 in   Overcast
5:15 PM 55.4 °F - 55.4 °F 100% 29.84 in 10.0 mi South 12.7 mph - N/A   Overcast
5:35 PM 55.4 °F - 55.4 °F 100% 29.84 in 10.0 mi South 10.4 mph - N/A   Overcast
5:55 PM 55.4 °F - 55.4 °F 100% 29.84 in 10.0 mi South 9.2 mph - N/A   Overcast
6:15 PM - - - N/A% 29.84 in 10.0 mi SSW 8.1 mph - N/A   Overcast
6:35 PM - - - N/A% 29.85 in 10.0 mi SW 9.2 mph - N/A   Overcast
6:55 PM 57.2 °F - 57.2 °F 100% 29.85 in 9.0 mi SW 10.4 mph - N/A   Overcast
7:15 PM 57.2 °F - 57.2 °F 100% 29.87 in 9.0 mi WSW 6.9 mph - N/A   Overcast
7:35 PM 57.2 °F - 57.2 °F 100% 29.88 in 10.0 mi West 13.8 mph - N/A   Mostly Cloudy
7:55 PM 57.2 °F - 53.6 °F 88% 29.90 in 10.0 mi West 13.8 mph - N/A   Overcast
8:15 PM 55.4 °F - 51.8 °F 88% 29.90 in 10.0 mi West 13.8 mph - N/A   Overcast
8:35 PM 53.6 °F - 51.8 °F 94% 29.92 in 10.0 mi West 10.4 mph - N/A   Scattered Clouds
8:55 PM 51.8 °F - 50.0 °F 94% 29.92 in 10.0 mi West 8.1 mph - N/A   Partly Cloudy
9:15 PM 50.0 °F - 50.0 °F 100% 29.94 in 10.0 mi West 8.1 mph - N/A   Clear
9:35 PM 50.0 °F - 50.0 °F 100% 29.92 in 10.0 mi WNW 8.1 mph - N/A   Clear
9:55 PM 50.0 °F - 50.0 °F 100% 29.91 in 10.0 mi WNW 6.9 mph - N/A   Partly Cloudy
10:15 PM 48.2 °F - 48.2 °F 100% 29.92 in 10.0 mi West 5.8 mph - N/A   Partly Cloudy
10:35 PM 48.2 °F - 48.2 °F 100% 29.93 in 10.0 mi SW 6.9 mph - N/A   Clear
10:55 PM 48.2 °F - 48.2 °F 100% 29.94 in 10.0 mi SW 8.1 mph - N/A   Clear
11:15 PM 48.2 °F - 48.2 °F 100% 29.95 in 10.0 mi SW 8.1 mph - N/A   Clear
11:35 PM - - - N/A% 29.95 in 10.0 mi WSW 5.8 mph - N/A   Clear
11:55 PM 46.4 °F 42.9 °F 46.4 °F 100% 29.96 in 10.0 mi WSW 6.9 mph - N/A   Clear